Dewpoint
16 15 13 11 8 6 10 9 9 14 11 10 7 6 6 2 2 5 6 7 8 6 10 16 15 27 39 45 50 53 55 56 57 56 56 57 57 60 61 63 62 63 64 65 66 66 66 66 67 66 66 66 66 67 69 68 68 68 68 69 69 69 70 68 68 68 68 67 67 68 67 67 66 66 66 67 67 67 66 67 67 67 67 67 67 67
12 14 12 8 7 6 7 12 15 15 13 8 8 6 5 5 4 6 6 8 7 16 9 16 13 28 36 44 49 53 54 54 57 57 59 60 60 60 60 58 59 61 63 64 65 64 63 63 65 66 66 66 66 66 67 68 68 69 69 67 67 69 70 70 70 69 68 69 66 65 65 65 64 64 64 64 66 67 67 67 67 67 66 66 66 66
13 11 11 8 6 4 8 11 13 16 14 10 8 7 7 5 6 7 7 8 7 7 11 13 19 25 36 43 49 52 51 55 57 57 58 60 59 60 57 56 57 58 58 59 60 61 62 62 62 64 65 66 66 67 66 65 66 67 64 65 67 69 68 69 70 69 68 70 69 67 66 64 64 67 66 65 65 66 67 67 67 66 66 66 66 66
14 8 9 7 5 5 4 6 13 15 16 14 11 10 8 4 6 6 9 7 8 11 12 13 14 27 40 44 49 52 51 55 57 59 60 60 59 58 57 57 58 58 58 58 58 59 61 62 62 64 63 64 66 66 66 66 65 66 65 66 65 66 68 69 70 69 70 70 69 68 67 67 65 65 66 66 66 66 66 66 66 65 65 64 65 64
5 7 8 6 5 4 8 7 8 13 13 17 11 7 4 7 5 4 6 9 9 10 14 11 20 35 39 41 46 53 54 54 56 58 58 60 61 60 59 58 59 57 58 58 59 61 60 61 62 63 62 64 65 64 64 65 66 66 67 66 65 66 69 69 69 70 70 68 67 67 67 67 67 66 64 64 64 64 64 65 65 65 64 64 64 64
7 7 12 10 6 2 4 4 5 9 10 13 15 9 6 7 7 7 9 7 10 11 11 15 25 31 35 38 38 49 53 53 55 57 57 57 57 58 57 58 58 59 58 59 60 60 61 59 62 62 64 65 64 65 64 66 67 66 67 66 66 69 69 69 70 70 67 66 65 64 64 63 64 64 64 64 63 64 64 63 65 65 64 63 64 63
10 16 14 8 4 2 2 1 2 5 7 13 13 12 9 8 7 6 6 6 8 10 10 17 15 18 30 34 35 43 50 51 54 55 56 57 56 57 58 57 57 58 58 60 59 60 61 61 61 63 63 65 65 64 64 66 66 66 67 66 68 69 68 69 69 69 66 65 65 65 65 64 64 63 63 64 64 63 63 64 65 64 64 63 63 63
15 18 12 8 6 2 2 3 2 2 3 4 9 13 11 8 7 7 5 5 9 15 12 12 11 21 28 32 35 36 43 48 49 51 53 55 55 53 54 58 58 58 59 59 60 61 62 62 63 63 63 64 64 64 65 66 66 67 68 69 67 67 68 68 68 66 66 66 66 66 65 64 64 64 63 64 64 64 64 64 64 63 63 63 62 62
23 17 11 10 8 3 2 2 3 2 0 3 10 12 11 9 9 7 6 8 13 13 11 9 9 12 17 28 35 34 36 40 44 49 50 52 54 53 52 57 58 58 59 59 60 61 62 63 64 63 63 63 64 65 65 65 66 67 68 68 68 66 66 67 67 67 67 66 66 65 65 63 63 64 63 62 63 63 63 63 62 62 62 62 62 62
19 18 12 11 7 6 5 3 6 4 1 5 8 10 12 11 10 8 8 6 13 15 12 10 8 9 9 29 33 40 35 35 38 46 50 51 52 52 52 55 57 58 60 59 60 61 62 63 63 63 63 63 64 65 66 66 66 66 66 66 67 66 66 66 67 67 67 66 66 65 64 63 63 63 63 63 62 63 62 61 61 61 61 61 62 62
18 23 19 12 10 7 7 7 7 3 2 8 7 7 10 10 12 13 12 10 16 12 10 8 8 5 5 23 27 38 38 35 33 36 46 51 51 51 53 54 57 57 58 58 59 60 62 63 63 63 63 63 64 65 65 66 65 66 67 67 66 65 65 66 66 66 65 66 65 64 64 63 62 62 62 62 62 60 61 60 60 60 60 61 61 61
19 18 17 14 13 11 9 11 8 5 3 7 4 4 8 13 15 18 16 16 13 10 8 7 7 6 6 18 21 30 32 33 31 31 42 50 50 51 52 54 56 57 57 58 59 60 62 62 62 62 62 63 63 65 65 65 65 65 65 64 65 65 65 65 65 65 65 64 63 64 64 63 62 62 62 61 60 60 60 60 59 59 59 59 60 60
17 17 17 17 23 14 14 10 8 5 6 5 3 3 9 11 14 12 12 12 10 10 10 5 6 6 6 15 21 28 28 28 30 28 36 49 50 53 51 54 55 57 57 58 60 61 62 61 62 62 62 63 63 64 65 65 65 65 64 64 64 64 65 65 64 64 63 63 63 62 63 63 62 62 61 60 60 60 59 58 58 59 58 58 59 60
14 15 15 17 17 18 13 7 8 7 8 4 3 6 7 9 11 13 10 14 11 10 12 11 8 7 11 11 17 23 28 27 31 32 36 46 51 53 53 54 55 57 57 58 60 61 61 61 61 62 62 62 63 63 64 64 64 64 63 64 63 63 64 63 63 62 62 63 63 63 62 62 61 61 60 60 60 60 58 58 58 59 58 58 60 59
11 11 15 15 14 16 13 7 7 6 7 3 2 2 9 10 12 14 9 11 11 9 13 12 11 11 8 12 15 34 44 47 49 49 50 47 51 55 54 53 55 57 58 58 60 61 61 61 61 61 62 62 62 63 63 63 63 63 63 63 63 63 63 62 62 62 62 62 62 62 62 62 61 61 60 59 59 59 58 58 59 59 58 57 58 58
8 13 11 13 14 14 12 10 10 7 5 5 4 3 6 8 13 9 14 13 12 12 16 15 13 13 12 44 45 47 47 46 46 47 50 50 53 54 55 55 57 57 57 60 60 61 61 61 61 61 61 62 62 62 62 63 63 63 62 62 62 62 61 61 61 61 62 62 61 61 61 61 60 59 59 59 58 58 59 59 59 58 58 58 58 59
10 12 12 13 14 14 11 11 10 8 12 8 3 6 4 6 5 18 20 26 22 15 14 19 16 20 25 27 43 42 44 43 44 44 46 50 52 55 55 56 57 58 56 60 60 60 60 60 61 61 61 61 62 62 62 62 62 62 62 62 61 60 60 60 61 61 61 61 60 60 60 60 59 59 58 58 60 59 59 59 58 58 57 59 58 58
12 13 13 13 13 14 12 10 12 9 6 6 7 4 8 10 10 18 10 14 11 11 14 19 12 12 14 15 41 44 41 42 43 42 46 52 52 54 56 57 57 58 59 60 60 60 59 60 60 60 60 61 61 62 62 62 62 63 62 61 60 60 59 60 60 61 60 60 59 59 59 59 58 58 58 58 58 58 58 58 58 57 57 58 58 57
12 12 12 11 12 12 11 13 10 10 7 8 6 5 7 11 10 17 13 12 11 12 11 22 17 11 10 26 40 38 37 43 44 45 49 50 52 53 56 57 58 59 59 59 59 59 58 59 59 59 59 60 60 61 62 61 61 61 60 60 60 60 60 60 60 60 59 59 59 58 58 57 57 57 57 57 58 58 57 57 56 56 57 57 57 56
18 14 12 11 11 12 13 11 10 8 9 12 7 5 6 13 13 8 13 16 12 9 12 15 15 17 16 18 32 33 32 43 45 47 49 50 53 53 57 57 57 58 58 57 58 59 58 59 59 59 59 59 59 60 60 60 60 60 60 60 59 59 58 58 58 58 58 58 58 57 57 57 55 55 56 57 57 56 56 55 56 56 56 56 55 55
18 23 10 9 9 12 11 11 9 7 12 10 9 9 7 19 13 8 16 7 10 10 9 14 18 19 23 23 26 31 30 44 48 48 50 51 54 55 56 57 57 58 58 57 58 58 59 59 59 59 59 59 59 59 59 59 60 59 59 59 58 58 58 58 58 58 57 57 57 57 57 56 56 56 56 56 56 56 56 56 56 55 55 55 55 55
15 17 13 9 7 10 9 11 9 8 8 7 9 12 8 11 12 9 10 8 12 9 13 12 17 24 27 41 38 37 44 48 49 49 51 52 55 56 57 57 57 57 58 58 58 59 58 58 58 58 58 58 59 60 58 60 59 58 58 58 57 56 56 56 56 56 56 56 56 56 55 55 55 56 56 56 56 55 54 54 54 55 54 54 54 54
21 19 17 14 12 10 8 11 11 9 10 7 7 8 7 12 12 9 10 13 10 9 18 19 17 18 46 48 47 48 49 49 50 49 51 52 54 56 56 57 57 58 57 58 58 58 58 58 58 58 58 57 58 58 59 57 58 57 57 57 56 55 55 55 54 54 54 55 55 55 55 55 55 55 55 55 55 55 54 54 54 54 54 53 53 53
23 14 15 9 6 7 13 13 13 12 10 6 6 6 7 11 10 9 8 16 8 17 16 16 16 21 47 50 51 50 51 51 50 50 52 54 54 54 56 57 56 58 58 58 57 58 58 58 58 57 57 56 58 58 57 56 56 56 56 55 55 54 55 54 54 54 54 53 54 54 55 54 54 54 54 54 54 54 54 54 53 53 53 53 53 52
15 17 14 10 10 9 14 13 12 12 10 9 9 10 7 8 8 13 10 19 11 11 11 10 11 9 49 51 50 48 50 49 49 50 52 54 55 55 56 57 57 57 58 57 57 57 57 57 56 56 56 55 56 56 55 55 55 54 55 54 54 54 54 53 53 52 52 53 53 54 53 53 53 54 54 53 53 53 53 53 53 53 52 52 52 52
13 18 14 11 12 11 11 10 11 14 11 13 11 7 9 6 13 19 14 16 10 13 8 10 8 32 47 48 48 48 48 49 50 51 54 54 55 55 56 56 56 57 57 57 57 57 56 56 56 55 55 55 55 54 54 54 54 54 54 54 54 53 53 52 52 52 52 52 52 52 53 52 53 53 53 52 52 52 52 52 52 52 52 51 51 51
20 23 19 18 10 8 11 13 12 13 13 11 11 11 7 8 10 19 15 12 7 10 12 13 14 37 40 45 46 47 48 48 49 52 53 55 55 55 55 55 56 56 56 56 56 56 57 56 55 55 55 55 54 54 54 53 53 54 54 54 53 53 52 52 51 51 51 52 52 52 52 52 52 52 52 52 52 52 51 51 51 50 50 50 50 50
22 18 19 25 21 12 10 15 19 12 13 11 13 12 10 11 16 20 14 11 15 13 13 17 20 23 28 42 45 46 47 48 49 51 53 55 55 55 55 55 54 56 56 55 55 55 56 57 56 55 55 54 54 53 53 52 53 53 53 53 52 52 52 52 51 50 51 51 51 51 51 51 51 51 51 51 51 51 51 50 50 50 50 49 50 50
21 14 22 27 27 27 26 25 17 13 11 13 14 17 16 11 17 21 21 18 21 16 11 17 21 26 20 36 45 46 48 48 50 52 53 55 54 54 54 53 54 54 54 54 55 55 54 54 54 54 54 53 53 52 52 52 52 53 52 51 51 51 50 50 50 50 50 50 50 49 49 50 51 51 51 50 50 50 50 49 50 49 49 49 50 50
22 16 25 22 28 30 29 28 26 14 15 11 11 14 14 15 18 20 22 21 23 23 20 24 27 25 20 18 43 48 50 50 51 53 54 54 53 53 53 53 53 52 53 54 54 54 54 54 54 53 53 52 52 52 51 52 51 51 52 51 50 50 50 50 50 50 49 49 49 49 49 50 51 50 50 50 49 49 49 49 49 49 49 49 49 49
24 14 27 26 24 30 36 34 32 21 20 19 13 13 14 16 15 17 22 24 25 24 25 28 28 23 35 49 49 50 51 51 51 52 52 53 53 52 52 52 52 52 53 53 53 54 54 54 54 53 53 53 52 51 52 53 53 51 51 50 49 49 49 49 49 49 49 48 48 49 49 50 50 50 49 49 49 49 49 48 49 49 49 49 48 49
24 23 23 26 18 28 29 30 31 30 26 22 20 18 18 21 21 22 21 24 25 24 26 26 25 20 42 48 50 50 50 50 51 51 53 52 52 52 52 52 52 52 52 53 53 54 53 53 53 53 54 53 52 52 51 51 50 50 51 49 49 49 49 49 49 48 48 48 48 48 49 49 49 48 49 49 48 48 48 48 48 47 47 48 49 48
18 20 17 17 15 19 30 29 34 33 28 21 24 25 25 23 23 23 20 28 32 27 22 24 18 18 44 48 48 49 49 50 51 51 51 52 52 51 51 51 52 51 52 52 53 54 53 52 53 53 52 52 51 51 51 51 50 50 49 49 49 48 49 48 49 48 47 46 47 47 49 48 48 47 48 47 48 48 47 47 47 47 47 47 48 48
18 20 16 19 14 22 31 31 34 26 19 16 39 44 39 28 27 29 32 38 34 27 25 30 34 45 46 48 47 48 48 49 50 52 53 52 51 51 51 52 52 52 52 52 52 52 52 52 52 53 52 51 51 50 51 51 50 49 50 48 48 48 48 48 48 47 47 47 47 47 47 47 47 47 47 47 47 47 46 46 46 47 47 47 47 47
22 20 16 19 13 18 29 30 23 20 17 38 43 43 43 44 43 39 37 35 33 35 45 37 40 45 46 47 48 49 50 49 51 52 53 53 52 51 51 51 51 52 52 52 52 52 51 51 51 52 52 50 50 51 50 49 49 49 48 48 47 47 47 47 47 47 48 47 46 47 47 46 46 46 45 46 46 46 45 46 46 45 45 45 45 44
20 17 19 20 14 20 23 21 20 16 34 40 42 43 44 41 42 41 39 40 40 38 39 35 40 46 48 48 49 50 50 49 51 52 53 53 53 52 52 52 52 52 51 51 52 52 52 50 50 51 51 51 50 49 49 49 48 48 47 47 47 47 46 46 46 46 46 46 46 46 46 46 46 46 45 45 45 45 45 45 45 44 44 44 43 44
25 21 22 16 26 20 20 20 18 32 39 40 42 43 40 36 38 32 21 24 38 39 41 38 43 47 49 49 49 49 49 50 50 52 52 52 53 53 53 52 53 53 52 52 53 52 53 52 52 51 51 51 50 49 49 49 48 48 47 46 46 45 45 45 44 45 46 46 46 46 46 46 45 45 44 44 44 43 44 44 43 43 43 43 43 43
21 19 20 20 22 20 15 17 20 21 20 29 42 45 45 48 44 44 39 27 38 39 43 43 42 48 48 48 48 49 50 47 47 49 52 52 53 53 52 53 53 52 52 51 52 52 52 52 51 51 51 51 50 50 49 49 48 47 46 45 44 43 43 43 43 43 44 45 45 45 45 44 44 43 43 43 42 43 44 43 43 43 42 42 41 41
26 22 20 16 21 17 18 17 18 19 25 33 43 45 47 46 47 48 33 20 41 43 42 43 44 47 48 48 47 48 47 44 45 48 50 52 53 53 53 52 52 52 52 52 52 51 51 51 51 51 51 50 50 50 50 49 48 46 45 45 45 44 44 42 42 43 43 44 44 43 43 43 43 42 42 42 42 43 43 43 43 42 42 41 41 41
25 20 19 16 20 18 18 17 16 21 24 38 41 45 43 47 46 43 20 19 46 44 43 44 46 47 48 49 48 47 45 40 44 47 50 52 52 53 53 53 52 51 51 51 51 51 51 51 51 51 50 50 50 50 49 49 48 47 46 45 44 44 43 42 42 42 42 43 44 43 43 43 43 42 41 41 42 42 42 42 42 41 40 40 38 38
21 18 18 17 15 19 20 15 19 22 32 41 40 44 44 47 43 25 16 31 41 46 44 45 47 49 49 48 48 46 48 48 49 51 51 51 51 52 52 52 51 50 50 51 51 49 51 51 50 50 49 49 50 49 49 48 47 46 45 45 43 43 42 42 42 42 42 43 43 42 41 42 42 42 42 42 42 42 41 41 41 41 40 39 39 39
21 23 18 20 16 16 17 15 15 19 39 42 45 45 46 40 26 20 40 43 47 47 48 47 48 49 49 48 48 48 48 49 48 48 50 50 51 51 51 51 50 51 53 52 50 50 50 50 50 50 49 50 49 48 48 47 46 45 44 44 43 43 42 42 42 42 42 42 41 41 42 42 42 43 43 42 42 42 41 41 40 40 39 38 40 40
21 21 18 19 22 17 17 16 16 17 30 43 46 43 44 35 32 42 45 48 45 48 48 49 49 49 49 48 48 49 49 49 49 49 50 51 51 50 50 50 50 51 51 50 50 49 49 49 48 48 48 48 48 47 46 47 45 44 44 42 42 42 42 42 42 41 41 41 42 42 42 43 43 42 40 42 42 40 40 40 40 40 39 40 40 39
35 20 14 15 20 16 16 17 17 24 40 45 42 28 40 43 45 46 47 46 46 48 48 48 49 49 49 48 47 49 49 49 48 48 50 50 50 50 50 50 50 49 49 49 49 49 49 48 47 47 47 47 47 46 46 45 44 44 43 42 42 42 41 41 41 41 42 42 42 42 40 40 40 41 42 41 40 39 39 38 37 36 37 36 36 35
39 37 36 22 32 24 17 29 40 42 44 46 46 45 46 47 47 47 47 47 48 46 50 48 48 50 49 48 49 48 48 49 48 49 49 49 50 50 50 49 49 49 49 49 48 48 47 46 46 46 46 46 47 47 46 45 44 43 42 42 43 42 41 41 42 42 42 41 40 40 38 39 40 40 40 40 39 38 37 38 38 35 36 35 34 34
40 42 44 40 30 40 41 42 45 41 43 45 45 45 46 47 47 48 47 47 47 49 48 49 49 48 48 49 48 47 47 48 48 48 49 50 50 50 49 49 48 49 49 47 47 46 46 46 46 45 45 45 46 46 46 45 44 43 42 42 42 41 41 41 41 41 40 39 39 37 36 38 38 38 38 38 36 36 34 35 34 32 33 32 32 32
40 40 41 32 38 29 28 42 43 44 44 45 44 45 47 47 48 47 48 48 48 49 49 50 50 49 48 48 48 47 48 48 48 48 49 49 49 49 48 48 49 50 48 46 46 45 45 44 44 44 44 45 45 45 45 45 44 42 41 41 40 39 39 39 40 39 39 38 36 36 36 38 37 38 39 39 36 35 34 35 33 34 33 34 32 32
37 41 36 37 38 28 37 40 44 44 44 45 44 44 45 46 46 48 48 48 49 50 51 51 51 48 48 48 48 47 47 48 48 48 48 48 48 48 48 48 48 48 49 47 45 44 44 44 43 44 44 44 44 44 44 42 40 40 40 39 39 39 39 40 39 38 37 36 35 35 35 36 34 34 34 35 34 32 32 32 34 32 33 32 33 32
41 39 31 38 34 40 38 39 40 44 44 44 44 45 46 46 46 47 48 48 49 49 49 49 50 48 47 47 48 48 48 47 47 48 47 48 47 47 48 48 47 47 47 45 45 44 44 44 43 44 43 43 43 43 42 41 40 39 40 40 40 40 38 38 38 38 37 36 35 35 35 35 35 33 33 33 34 36 38 36 35 37 38 38 38 38
37 35 37 35 31 28 31 41 41 35 36 43 44 46 47 47 47 47 48 48 48 48 49 49 48 48 48 48 48 48 47 47 47 48 47 47 47 47 47 47 47 46 45 45 45 45 45 44 44 43 42 42 42 42 41 41 41 40 39 40 40 40 39 38 38 38 36 36 35 35 33 35 34 35 35 36 36 35 37 33 34 36 32 33 35 34
38 41 38 32 31 32 40 41 44 44 43 45 46 46 46 46 46 47 47 48 48 49 49 49 48 46 47 48 48 48 47 47 47 48 47 47 47 47 48 47 46 45 45 45 45 44 43 43 42 42 42 42 42 42 42 41 40 40 39 40 40 39 38 38 36 35 35 35 34 33 34 34 34 33 32 31 31 32 31 33 34 34 34 34 34 34